Weather History for Missoula, MT

Change the Weather History Date:

Wednesday, October 2, 2013

  Actual Average Record
Temperature  
Mean Temperature 45 °F 51 °F  
Max Temperature 55 °F 65 °F 84 °F (1992)
Min Temperature 34 °F 36 °F 23 °F (2002)
Degree Days  
Heating Degree Days 20 14  
Month to date heating degree days 38 28  
Since 1 July heating degree days 239 353  
Cooling Degree Days 0 0  
Month to date cooling degree days 0 0  
Year to date cooling degree days 579 332  
Moisture  
Dew Point 31 °F    
Average Humidity 66    
Maximum Humidity 96    
Minimum Humidity 35    
Precipitation  
Precipitation 0.00 in 0.03 in 1.47 in (1911)
Month to date precipitation 0.03 0.06  
Year to date precipitation 7.76 11.26  
Snow  
Snow 0.00 in - - ()
Month to date snowfall 0.0  
Year to date snowfall 27.4  
Since 1 July snowfall T  
Snow Depth 0.00 in    
Sea Level Pressure  
Sea Level Pressure 30.11 in    
Wind  
Wind Speed 6 mph (NNW)    
Max Wind Speed 20 mph    
Max Gust Speed 26 mph    
Visibility 10 miles    
Events      
T = Trace of Precipitation, MM = Missing Value Source: NWS Daily Summary

Daily Weather History Graph

Daily Weather History Graph

Search for Another Location

Airport:

Trip Planner

Search our weather history database for the weather conditions in past years. The results will help you decide how hot, cold, wet, or windy it might be!

Date:

Astronomy

Oct. 02, 2013 Rise Set
Actual Time 7:36 AM MDT 7:13 PM MDT
Civil Twilight 7:06 AM MDT 7:43 PM MDT
Nautical Twilight 6:31 AM MDT 8:18 PM MDT
Astronomical Twilight 5:55 AM MDT 8:54 PM MDT
Moon 5:06 AM MDT (10/2) 5:56 PM MDT (10/2)
Length of Visible Light 12h 37m
Length of Day
11h 36m
Waning Crescent, 6% of the Moon is Illuminated
Oct 2
Waning Crescent
Oct 4
New
Oct 11
First Quarter
Oct 18
Full
Oct 26
Last Quarter

Hourly Weather History & Observations

Time (MDT) Temp. Windchill Dew Point Humidity Pressure Visibility Wind Dir Wind Speed Gust Speed Precip Events Conditions
12:53 AM 44.1 °F 37.7 °F 37.0 °F 76% 30.15 in 10.0 mi NNW 12.7 mph - 0.00 in   Overcast
1:53 AM 42.1 °F 38.4 °F 37.0 °F 82% 30.16 in 10.0 mi NNW 5.8 mph - N/A   Mostly Cloudy
2:53 AM 43.0 °F 39.5 °F 36.0 °F 76% 30.17 in 10.0 mi NNW 5.8 mph - N/A   Overcast
3:53 AM 41.0 °F 38.0 °F 37.9 °F 89% 30.18 in 10.0 mi NNW 4.6 mph - N/A   Overcast
4:53 AM 39.9 °F 36.7 °F 37.0 °F 89% 30.19 in 10.0 mi NW 4.6 mph - N/A   Overcast
5:53 AM 39.0 °F 35.7 °F 36.0 °F 89% 30.19 in 10.0 mi ENE 4.6 mph - N/A   Mostly Cloudy
6:53 AM 34.0 °F 31.0 °F 32.0 °F 92% 30.22 in 10.0 mi NW 3.5 mph - N/A   Clear
7:53 AM 34.0 °F - 30.9 °F 89% 30.22 in 10.0 mi Calm Calm - N/A   Clear
8:53 AM 37.9 °F - 34.0 °F 86% 30.23 in 10.0 mi Calm Calm - N/A   Clear
9:53 AM 42.1 °F - 34.0 °F 73% 30.21 in 10.0 mi Calm Calm - N/A   Clear
10:53 AM 45.0 °F - 34.0 °F 65% 30.19 in 10.0 mi Calm Calm - N/A   Clear
11:53 AM 48.0 °F - 27.0 °F 44% 30.17 in 10.0 mi Calm Calm - N/A   Clear
12:53 PM 51.1 °F - 27.0 °F 39% 30.12 in 10.0 mi SSW 5.8 mph - N/A   Clear
1:53 PM 52.0 °F - 27.0 °F 38% 30.09 in 10.0 mi Calm Calm - N/A   Clear
2:53 PM 52.0 °F - 27.0 °F 38% 30.05 in 10.0 mi WSW 5.8 mph - N/A   Clear
3:53 PM 54.0 °F - 28.0 °F 37% 30.02 in 10.0 mi Variable 3.5 mph - N/A   Clear
4:53 PM 55.0 °F - 28.9 °F 37% 30.00 in 10.0 mi North 9.2 mph - N/A   Clear
5:53 PM 52.0 °F - 28.9 °F 41% 30.00 in 10.0 mi North 13.8 mph - N/A   Clear
6:53 PM 48.9 °F - 28.9 °F 46% 30.01 in 10.0 mi North 17.3 mph 23.0 mph N/A   Clear
7:53 PM 46.9 °F - 28.0 °F 48% 30.01 in 10.0 mi North 16.1 mph 23.0 mph N/A   Clear
8:53 PM 46.0 °F 41.0 °F 28.9 °F 51% 30.02 in 10.0 mi NNW 10.4 mph 17.3 mph N/A   Clear
9:53 PM 44.1 °F 39.0 °F 30.9 °F 60% 30.02 in 10.0 mi NW 9.2 mph - N/A   Clear
10:53 PM 45.0 °F 39.3 °F 30.0 °F 56% 30.01 in 10.0 mi NNW 11.5 mph - N/A   Partly Cloudy
11:53 PM 44.1 °F 39.0 °F 30.0 °F 58% 30.00 in 10.0 mi NW 9.2 mph - N/A   Overcast